Location: Cazavet
(43.0017°N, 1.0431°E)
Time: 21:50:04
(UTC+00:00)

Helios 1A Rocket - Pass Details

Date: 18 January 2026
Orbit: 426 x 436 km, 98.3° (Epoch: 10 February)

Event Time Altitude Azimuth Distance (km) Brightness Sun altitude
Rises 05:26:40 0° 150° (SSE) 2,434 6.7 -20.9°
Reaches altitude 10° 05:28:44 10° 143° (SE) 1,568 5.8 -20.5°
Maximum altitude 05:31:55 41° 72° (ENE) 665 3.6 -20.0°
Enters shadow 05:34:55 11° 2° (N) 1,501 5.0 -19.4°
